User: anonymous   Login
Location: Crayja
(6.2254°N, 10.6273°W)
Time: 21:55:27
(UTC+00:00)
Language:

Meteosat 1 Rocket2 - Orbit

View from above orbital plane
View from above orbital plane
View from above satellite
View from above satellite

Ground track
Ground track

The orbit data is extracted from the following two-line orbital elements,

1 10490U 77108B   20158.57314987 +.00000169 +00000-0 +16652-4 0  9997
2 10490 028.3012 267.8703 1171681 340.3590 015.5206 12.66539675939992
Epoch (UTC): 06 June 2020 13:45:20
Eccentricity: 0.1171681
inclination: 28.3012°
perigee height: 485 km
apogee height: 2307 km
right ascension of ascending node: 267.8703°
argument of perigee: 340.3590°
revolutions per day: 12.66539675
mean anomaly at epoch: 15.5206°
orbit number at epoch: 93999

The dashed part of the orbit path shows where the satellite is in the earth's shadow,  

DLR